Previsão horária em Jurkiszki

Hoje, 22 Junho, Terça-feira

Tempo Temperatura Precipitação Vento Pressão Humidade
00:00 +21°C° 0 mm 3 m/s 743 mmHg 86%
01:00 +21°C° 0 mm 3 m/s 743 mmHg 86%
02:00 +21°C° 0 mm 3 m/s 743 mmHg 87%
03:00 +20°C° 0 mm 3 m/s 743 mmHg 88%
04:00 +20°C° 0 mm 3 m/s 743 mmHg 89%
05:00 +22°C° 0 mm 3 m/s 743 mmHg 84%
06:00 +24°C° 0 mm 3 m/s 743 mmHg 80%
07:00 +26°C° 0 mm 4 m/s 743 mmHg 75%
08:00 +27°C° 0 mm 4 m/s 743 mmHg 71%
09:00 +28°C° 0 mm 5 m/s 744 mmHg 67%
10:00 +29°C° 0 mm 5 m/s 744 mmHg 63%
11:00 +29°C° 0 mm 5 m/s 744 mmHg 60%
12:00 +30°C° 0 mm 5 m/s 744 mmHg 58%
13:00 +30°C° 0 mm 5 m/s 744 mmHg 55%
14:00 +30°C° 0 mm 4 m/s 744 mmHg 58%
15:00 +30°C° 0 mm 4 m/s 744 mmHg 61%
16:00 +29°C° 0 mm 4 m/s 744 mmHg 64%
17:00 +28°C° 0.1 mm 3 m/s 744 mmHg 68%
18:00 +27°C° 0.1 mm 3 m/s 744 mmHg 73%
19:00 +26°C° 0.1 mm 3 m/s 744 mmHg 77%
20:00 +25°C° 0.2 mm 3 m/s 744 mmHg 79%
21:00 +24°C° 0.2 mm 3 m/s 744 mmHg 82%
22:00 +22°C° 0.2 mm 3 m/s 745 mmHg 85%
23:00 +21°C° 0.1 mm 3 m/s 745 mmHg 88%

Amanhã, 23 Junho, Quarta-feira

Tempo Temperatura Precipitação Vento Pressão Humidade
00:00 +20°C° 0.1 mm 2 m/s 745 mmHg 92%
01:00 +19°C° 0.1 mm 2 m/s 745 mmHg 95%
02:00 +19°C° 0 mm 2 m/s 745 mmHg 96%
03:00 +18°C° 0 mm 2 m/s 745 mmHg 96%
04:00 +18°C° 0 mm 2 m/s 746 mmHg 97%
05:00 +19°C° 0 mm 2 m/s 746 mmHg 93%
06:00 +19°C° 0 mm 2 m/s 746 mmHg 89%
07:00 +20°C° 0 mm 2 m/s 747 mmHg 85%
08:00 +23°C° 0 mm 2 m/s 747 mmHg 80%
09:00 +24°C° 0 mm 2 m/s 747 mmHg 74%
10:00 +26°C° 0 mm 2 m/s 748 mmHg 69%
11:00 +26°C° 0 mm 2 m/s 748 mmHg 67%
12:00 +27°C° 0 mm 2 m/s 748 mmHg 66%
13:00 +27°C° 0 mm 2 m/s 748 mmHg 64%
14:00 +27°C° 0 mm 2 m/s 748 mmHg 65%
15:00 +27°C° 0 mm 2 m/s 748 mmHg 67%
16:00 +27°C° 0 mm 3 m/s 748 mmHg 68%
17:00 +25°C° 0.7 mm 3 m/s 749 mmHg 75%
18:00 +22°C° 0.7 mm 3 m/s 749 mmHg 82%
19:00 +21°C° 0.7 mm 3 m/s 749 mmHg 90%
20:00 +20°C° 0.9 mm 2 m/s 749 mmHg 91%
21:00 +19°C° 0.9 mm 2 m/s 749 mmHg 91%
22:00 +18°C° 0.9 mm 2 m/s 749 mmHg 92%
23:00 +17°C° 0.9 mm 2 m/s 749 mmHg 93%

Depois de amanhã, 24 Junho, Quinta-feira

Tempo Temperatura Precipitação Vento Pressão Humidade
00:00 +16°C° 0.9 mm 2 m/s 749 mmHg 93%
01:00 +16°C° 0.9 mm 2 m/s 749 mmHg 93%
02:00 +16°C° 0.4 mm 2 m/s 749 mmHg 93%
03:00 +16°C° 0.4 mm 2 m/s 749 mmHg 93%
04:00 +15°C° 0.4 mm 1 m/s 749 mmHg 93%
05:00 +17°C° 0.2 mm 2 m/s 749 mmHg 89%
06:00 +18°C° 0.2 mm 2 m/s 749 mmHg 85%
07:00 +19°C° 0.2 mm 2 m/s 749 mmHg 81%
08:00 +21°C° 0 mm 2 m/s 749 mmHg 77%
09:00 +23°C° 0 mm 2 m/s 749 mmHg 72%
10:00 +25°C° 0 mm 2 m/s 749 mmHg 68%
11:00 +25°C° 0 mm 2 m/s 749 mmHg 67%
12:00 +26°C° 0 mm 2 m/s 749 mmHg 65%
13:00 +27°C° 0 mm 2 m/s 749 mmHg 64%
14:00 +27°C° 0 mm 2 m/s 748 mmHg 65%
15:00 +27°C° 0 mm 2 m/s 748 mmHg 66%
16:00 +27°C° 0 mm 2 m/s 748 mmHg 67%
17:00 +26°C° 0 mm 2 m/s 748 mmHg 72%
18:00 +25°C° 0 mm 2 m/s 747 mmHg 77%
19:00 +24°C° 0 mm 2 m/s 747 mmHg 83%
20:00 +23°C° 0.4 mm 2 m/s 747 mmHg 86%
21:00 +20°C° 0.4 mm 2 m/s 747 mmHg 89%
22:00 +19°C° 0.4 mm 2 m/s 747 mmHg 92%
23:00 +19°C° 0.4 mm 2 m/s 747 mmHg 93%

25 Junho, Sexta-feira

Tempo Temperatura Precipitação Vento Pressão Humidade
00:00 +19°C° 0.4 mm 2 m/s 746 mmHg 94%
01:00 +18°C° 0.4 mm 2 m/s 746 mmHg 95%
02:00 +19°C° 0.2 mm 2 m/s 746 mmHg 96%
03:00 +19°C° 0.2 mm 2 m/s 746 mmHg 96%
04:00 +20°C° 0.2 mm 1 m/s 745 mmHg 97%
05:00 +20°C° 0.7 mm 2 m/s 745 mmHg 96%
06:00 +21°C° 0.7 mm 2 m/s 745 mmHg 94%
07:00 +23°C° 0.7 mm 2 m/s 745 mmHg 93%
08:00 +25°C° 0.7 mm 2 m/s 745 mmHg 88%
09:00 +26°C° 0.7 mm 2 m/s 745 mmHg 83%
10:00 +27°C° 0.7 mm 2 m/s 745 mmHg 78%
11:00 +28°C° 1.4 mm 2 m/s 745 mmHg 75%
12:00 +29°C° 1.4 mm 2 m/s 745 mmHg 71%
13:00 +29°C° 1.4 mm 2 m/s 744 mmHg 68%
14:00 +29°C° 0.7 mm 2 m/s 744 mmHg 68%
15:00 +29°C° 0.7 mm 2 m/s 743 mmHg 68%
16:00 +29°C° 0.7 mm 2 m/s 743 mmHg 68%
17:00 +27°C° 5.3 mm 3 m/s 743 mmHg 77%
18:00 +24°C° 5.3 mm 3 m/s 743 mmHg 86%
19:00 +20°C° 5.3 mm 4 m/s 743 mmHg 95%
20:00 +20°C° 1.8 mm 3 m/s 743 mmHg 96%
21:00 +20°C° 1.8 mm 3 m/s 743 mmHg 96%
22:00 +19°C° 1.8 mm 2 m/s 743 mmHg 97%
23:00 +19°C° 0.1 mm 2 m/s 743 mmHg 97%

26 Junho, Sábado

Tempo Temperatura Precipitação Vento Pressão Humidade
00:00 +18°C° 0.1 mm 2 m/s 743 mmHg 98%
01:00 +18°C° 0.1 mm 2 m/s 743 mmHg 98%
02:00 +17°C° 0.1 mm 2 m/s 743 mmHg 98%
03:00 +17°C° 0.1 mm 2 m/s 743 mmHg 98%
04:00 +17°C° 0.1 mm 2 m/s 743 mmHg 98%
05:00 +17°C° 0 mm 2 m/s 744 mmHg 97%
06:00 +18°C° 0 mm 2 m/s 744 mmHg 96%
07:00 +18°C° 0 mm 3 m/s 744 mmHg 95%
08:00 +19°C° 0 mm 3 m/s 744 mmHg 93%
09:00 +19°C° 0 mm 3 m/s 745 mmHg 91%
10:00 +20°C° 0 mm 3 m/s 745 mmHg 89%
11:00 +20°C° 0.1 mm 3 m/s 745 mmHg 87%
12:00 +21°C° 0.1 mm 4 m/s 745 mmHg 85%
13:00 +21°C° 0.1 mm 4 m/s 746 mmHg 83%
14:00 +21°C° 0.1 mm 4 m/s 746 mmHg 82%
15:00 +21°C° 0.1 mm 4 m/s 746 mmHg 82%
16:00 +21°C° 0.1 mm 4 m/s 746 mmHg 81%
17:00 +20°C° 0 mm 4 m/s 746 mmHg 82%
18:00 +20°C° 0 mm 3 m/s 747 mmHg 83%
19:00 +19°C° 0 mm 3 m/s 747 mmHg 84%
20:00 +18°C° 0 mm 3 m/s 747 mmHg 87%
21:00 +17°C° 0 mm 3 m/s 747 mmHg 90%
22:00 +16°C° 0 mm 3 m/s 747 mmHg 92%
23:00 +15°C° 0 mm 2 m/s 747 mmHg 94%

27 Junho, Domingo

Tempo Temperatura Precipitação Vento Pressão Humidade
00:00 +15°C° 0 mm 2 m/s 747 mmHg 95%
01:00 +14°C° 0 mm 2 m/s 747 mmHg 97%
02:00 +14°C° 0 mm 2 m/s 748 mmHg 97%
03:00 +14°C° 0 mm 2 m/s 748 mmHg 98%
04:00 +14°C° 0 mm 2 m/s 748 mmHg 98%
05:00 +15°C° 0 mm 2 m/s 748 mmHg 93%
06:00 +17°C° 0 mm 2 m/s 748 mmHg 87%
07:00 +18°C° 0 mm 3 m/s 748 mmHg 82%
08:00 +20°C° 0 mm 3 m/s 748 mmHg 78%
09:00 +21°C° 0 mm 3 m/s 749 mmHg 73%
10:00 +22°C° 0 mm 3 m/s 749 mmHg 69%
11:00 +22°C° 0 mm 3 m/s 749 mmHg 68%
12:00 +22°C° 0 mm 3 m/s 749 mmHg 68%
13:00 +23°C° 0 mm 2 m/s 749 mmHg 68%
14:00 +23°C° 0 mm 2 m/s 749 mmHg 70%
15:00 +23°C° 0 mm 2 m/s 749 mmHg 71%
16:00 +23°C° 0 mm 2 m/s 749 mmHg 73%
17:00 +21°C° 0 mm 2 m/s 749 mmHg 77%
18:00 +20°C° 0 mm 2 m/s 749 mmHg 81%
19:00 +20°C° 0 mm 2 m/s 749 mmHg 85%
20:00 +18°C° 0 mm 2 m/s 749 mmHg 87%
21:00 +17°C° 0 mm 2 m/s 749 mmHg 90%
22:00 +15°C° 0 mm 2 m/s 749 mmHg 93%
23:00 +15°C° 0 mm 2 m/s 749 mmHg 94%
Mostrar mais

Necessitamos do seu Consentimento

A Meteoprog e os seus Fornecedores de Serviços podem armazenar e aceder a dados pessoais como cookies, identificadores do dispositivo ou outras tecnologias semelhantes existentes no seu dispositivo e processar estes dados para personalizar conteúdos e anúncios, assim como funcionalidades nas redes sociais e análise de tráfego.

  • Armazenar e/ou aceder a informações no seu dispositivo

    Os cookies, identificadores do dispositivo ou outras informações podem ser armazenados ou acedidos no seu dispositivo, para os fins acima indicados.

  • Anúncios e conteúdos personalizados, medição de anúncios e conteúdos, dados sobre o público-alvo e desenvolvimento de produtos

    Os anúncios e os conteúdos podem ser personalizados com base num perfil. Podem ser adicionados dados adicionais para uma maior personalização dos anúncios e dos conteúdos. A eficácia dos anúncios e dos conteúdos pode ser medida. Podem ser obtidas informações sobre o público que visualizou os anúncios e os conteúdos. Estes dados podem ser usados para desenvolver ou melhorar sistemas, softwares ou a experiência do utilizador.

Ao clicar em "Eu concordo”, permitirá o uso de cookies, identificadores do dispositivo e web beacons mencionados ou outras tecnologias semelhantes. As configurações do navegador do seu dispositivo podem ser alteradas.

Para certos fins, podem ser invocados interesses legítimos ao invés de consentimento. Pode ler mais informação sobre este assunto na nossa Política de Privacidade e Cookies.